User: anonymous   Login
Location: Copper Breaks State Park
(34.1132°N, 99.7492°W)
Time: 03:12:39
(UTC-06:00)
Language:

SL-16 R/B - Orbit

View from above orbital plane
View from above orbital plane
View from above satellite
View from above satellite

Ground track
Ground track

The orbit data is extracted from the following two-line orbital elements,

1 27006U 01056F   16036.88687567 -.00000046  00000-0 -38242-5 0  9994
2 27006  99.2367 189.3231 0014911 164.0106   0.7296 13.70970657708356
Epoch (UTC): 05 February 2016 21:17:06
Eccentricity: 0.0014911
inclination: 99.2367°
perigee height: 985 km
apogee height: 1007 km
right ascension of ascending node: 189.3231°
argument of perigee: 164.0106°
revolutions per day: 13.70970657
mean anomaly at epoch: 0.7296°
orbit number at epoch: 70835

The dashed part of the orbit path shows where the satellite is in the earth's shadow,  

DLR